DLH5UW EDDM-ENGM

Flight info

Callsign DLH5UW
Flight time N/A
Altitude 38000
Route INPUD2N/26R INPUD Y102 UPALA M726 LASGA DCT EMBOX DCT BUMIL DCT GIMRU DCT SABAK L997 LUNIP
Aircraft A320/M-SDE2E3FGIJ1LORWXYZ/HB1

Departure

Time N/A
Airport Munich Airport (EDDM)

Arrival

Time 2026-05-04 09:31
Airport Oslo-Gardermoen International Airport (ENGM)
Time Latitude Longitude Altitude Speed Heading
2026-05-04 08:25 52.72757 11.30999 37999 ft 459 kts 353°
2026-05-04 08:25 52.78990 11.30623 37985 ft 459 kts 353°
2026-05-04 08:27 53.04553 11.29055 37974 ft 460 kts 353°
2026-05-04 08:28 53.10957 11.28671 37985 ft 461 kts 353°
2026-05-04 08:28 53.17377 11.28512 37997 ft 462 kts 356°
2026-05-04 08:29 53.23812 11.28710 38006 ft 462 kts 357°
2026-05-04 08:31 53.49446 11.29280 38001 ft 459 kts 356°
2026-05-04 08:33 53.73974 11.29773 37991 ft 460 kts 356°
2026-05-04 08:35 53.99564 11.30260 37991 ft 460 kts 356°
2026-05-04 08:35 54.05974 11.30396 37974 ft 461 kts 356°
2026-05-04 08:37 54.28426 11.30811 37967 ft 462 kts 356°
2026-05-04 08:38 54.34852 11.30939 37960 ft 462 kts 356°
2026-05-04 08:38 54.41291 11.31070 37964 ft 463 kts 356°
2026-05-04 08:40 54.67068 11.32161 37981 ft 464 kts 359°
2026-05-04 08:41 54.73510 11.32813 37973 ft 464 kts 359°
2026-05-04 08:41 54.79951 11.33383 37984 ft 463 kts 358°
2026-05-04 08:42 54.86392 11.33897 37973 ft 463 kts 358°
2026-05-04 08:42 54.92831 11.34417 37973 ft 463 kts 358°
2026-05-04 08:43 54.99265 11.34963 37957 ft 463 kts 358°
2026-05-04 08:43 55.05704 11.35516 37969 ft 463 kts 358°
2026-05-04 08:44 55.12140 11.36066 37965 ft 463 kts 358°
2026-05-04 08:46 55.37882 11.38269 37950 ft 463 kts 358°
2026-05-04 08:46 55.44323 11.38824 37960 ft 463 kts 358°
2026-05-04 08:47 55.50766 11.39390 37951 ft 463 kts 358°
2026-05-04 08:47 55.57213 11.39956 37946 ft 464 kts 358°
2026-05-04 08:48 55.63650 11.40517 37947 ft 464 kts 358°
2026-05-04 08:48 55.70093 11.41078 37947 ft 463 kts 358°
2026-05-04 08:49 55.76531 11.41638 37948 ft 463 kts 358°
2026-05-04 08:50 55.99055 11.43625 37938 ft 464 kts 358°
2026-05-04 08:51 56.05553 11.44207 37958 ft 465 kts 358°
2026-05-04 08:51 56.11965 11.44786 37943 ft 465 kts 358°
2026-05-04 08:52 56.18431 11.45371 37938 ft 465 kts 358°
2026-05-04 08:52 56.24905 11.45946 37925 ft 466 kts 358°
2026-05-04 08:54 56.50818 11.48301 37909 ft 466 kts 358°
2026-05-04 08:55 56.57296 11.48894 37901 ft 466 kts 358°
2026-05-04 08:55 56.63763 11.49484 37911 ft 466 kts 358°
2026-05-04 09:01 57.31668 11.55852 37864 ft 465 kts 358°
2026-05-04 09:01 57.38135 11.56467 37865 ft 465 kts 358°
2026-05-04 09:02 57.44601 11.57093 37878 ft 465 kts 358°
2026-05-04 09:02 57.51062 11.57721 37860 ft 465 kts 358°
2026-05-04 09:03 57.57525 11.58344 37852 ft 465 kts 358°
2026-05-04 09:03 57.63983 11.58975 37848 ft 465 kts 358°
2026-05-04 09:04 57.70450 11.59606 37874 ft 466 kts 358°
2026-05-04 09:04 57.76924 11.60245 37864 ft 466 kts 358°
2026-05-04 09:05 57.83401 11.60874 37860 ft 466 kts 358°
2026-05-04 09:05 57.89884 11.61502 37851 ft 466 kts 358°
2026-05-04 09:06 57.96367 11.62141 37871 ft 466 kts 358°
2026-05-04 09:07 58.19018 11.63833 37818 ft 459 kts 347°
2026-05-04 09:08 58.22158 11.62909 37818 ft 456 kts 345°
2026-05-04 09:08 58.28429 11.60963 37812 ft 457 kts 345°
2026-05-04 09:08 58.31569 11.59993 37658 ft 458 kts 345°
2026-05-04 09:09 58.34719 11.59023 36922 ft 460 kts 345°
2026-05-04 09:09 58.37886 11.58048 36109 ft 462 kts 345°
2026-05-04 09:09 58.41068 11.57064 35267 ft 465 kts 345°
2026-05-04 09:09 58.44272 11.56068 34349 ft 469 kts 345°
2026-05-04 09:10 58.47510 11.55057 33331 ft 474 kts 345°
2026-05-04 09:10 58.50771 11.54036 32404 ft 475 kts 345°
2026-05-04 09:10 58.54021 11.53023 31498 ft 474 kts 345°
2026-05-04 09:10 58.57253 11.52017 30902 ft 467 kts 345°
2026-05-04 09:11 58.60447 11.51030 30206 ft 463 kts 345°
2026-05-04 09:11 58.63593 11.50051 29668 ft 454 kts 345°
2026-05-04 09:11 58.66687 11.49081 28762 ft 449 kts 345°
2026-05-04 09:11 58.69742 11.48115 28181 ft 441 kts 345°
2026-05-04 09:12 58.72745 11.47165 27580 ft 434 kts 344°
2026-05-04 09:12 58.75704 11.46227 26982 ft 428 kts 344°
2026-05-04 09:14 58.94482 11.40249 23381 ft 394 kts 342°
2026-05-04 09:14 58.97172 11.39385 22835 ft 389 kts 342°
2026-05-04 09:14 58.99820 11.38534 22357 ft 383 kts 342°
2026-05-04 09:14 59.02432 11.37702 21877 ft 378 kts 342°
2026-05-04 09:15 59.05009 11.36874 21407 ft 373 kts 342°
2026-05-04 09:15 59.07556 11.36045 20924 ft 369 kts 342°
2026-05-04 09:15 59.10079 11.35223 20442 ft 366 kts 342°
2026-05-04 09:15 59.12564 11.34336 20083 ft 359 kts 340°
2026-05-04 09:17 59.32523 11.28567 16595 ft 366 kts 347°
2026-05-04 09:18 59.35026 11.28064 16041 ft 364 kts 347°
2026-05-04 09:18 59.37568 11.27544 15483 ft 363 kts 347°
2026-05-04 09:18 59.40080 11.27025 14959 ft 363 kts 347°
2026-05-04 09:18 59.42579 11.26502 14378 ft 359 kts 347°
2026-05-04 09:19 59.45008 11.26005 13844 ft 343 kts 347°
2026-05-04 09:19 59.47325 11.25498 13442 ft 327 kts 345°
2026-05-04 09:19 59.49558 11.24880 13187 ft 320 kts 344°
2026-05-04 09:19 59.51774 11.24186 12651 ft 315 kts 343°
2026-05-04 09:20 59.53917 11.23487 12174 ft 314 kts 343°
2026-05-04 09:20 59.56129 11.22765 11698 ft 313 kts 344°
2026-05-04 09:20 59.58197 11.22100 11243 ft 313 kts 344°
2026-05-04 09:20 59.60337 11.21427 10834 ft 308 kts 345°
2026-05-04 09:21 59.62432 11.20784 10422 ft 300 kts 345°
2026-05-04 09:21 59.64443 11.20179 10023 ft 288 kts 345°
2026-05-04 09:21 59.66422 11.19574 9621 ft 286 kts 345°
2026-05-04 09:21 59.68387 11.18956 9174 ft 285 kts 345°
2026-05-04 09:22 59.70344 11.18341 8763 ft 284 kts 346°
2026-05-04 09:22 59.72290 11.17738 8333 ft 282 kts 346°
2026-05-04 09:22 59.74206 11.17144 7908 ft 273 kts 346°
2026-05-04 09:22 59.76063 11.16570 7502 ft 268 kts 346°
2026-05-04 09:23 59.77894 11.16006 7087 ft 265 kts 346°
2026-05-04 09:23 59.79714 11.15443 6681 ft 263 kts 347°
2026-05-04 09:23 59.81514 11.14881 6277 ft 260 kts 347°
2026-05-04 09:23 59.83293 11.14325 5851 ft 257 kts 347°
2026-05-04 09:25 59.93987 11.08826 4260 ft 211 kts 317°
2026-05-04 09:25 59.95210 11.06717 4004 ft 208 kts 316°
2026-05-04 09:26 59.96152 11.05071 3999 ft 195 kts 316°
2026-05-04 09:26 59.97154 11.03274 4010 ft 192 kts 313°
2026-05-04 09:26 59.98203 11.01618 4011 ft 195 kts 329°
2026-05-04 09:26 59.99512 11.00844 4010 ft 201 kts 351°
2026-05-04 09:27 60.00899 11.01189 3991 ft 200 kts 10°
2026-05-04 09:27 60.02216 11.01950 3880 ft 193 kts 11°
2026-05-04 09:27 60.03485 11.02686 3624 ft 187 kts 10°
2026-05-04 09:27 60.04711 11.03391 3380 ft 180 kts 10°
2026-05-04 09:28 60.05900 11.04071 3141 ft 176 kts
2026-05-04 09:28 60.07042 11.04729 2909 ft 165 kts
2026-05-04 09:28 60.08113 11.05343 2694 ft 155 kts
2026-05-04 09:28 60.09117 11.05920 2487 ft 142 kts
2026-05-04 09:29 60.10054 11.06455 2290 ft 139 kts
2026-05-04 09:29 60.10966 11.06977 2098 ft 137 kts
2026-05-04 09:29 60.11896 11.07509 1909 ft 136 kts
2026-05-04 09:29 60.12791 11.08023 1729 ft 136 kts
2026-05-04 09:30 60.13700 11.08545 1533 ft 135 kts
2026-05-04 09:30 60.14591 11.09059 1341 ft 133 kts
2026-05-04 09:30 60.15479 11.09570 1151 ft 132 kts
2026-05-04 09:30 60.16349 11.10071 977 ft 128 kts 11°
2026-05-04 09:31 60.17194 11.10558 805 ft 125 kts
2026-05-04 09:31 60.18008 11.11027 694 ft 113 kts 14°
2026-05-04 09:31 60.18623 11.11368 688 ft 74 kts 17°
2026-05-04 09:31 60.19014 11.11604 688 ft 42 kts 16°
2026-05-04 09:32 60.19254 11.11696 687 ft 34 kts 358°
2026-05-04 09:32 60.19373 11.11562 684 ft 19 kts 285°
2026-05-04 09:34 60.19580 11.10403 691 ft 13 kts 355°
2026-05-04 09:34 60.19673 11.10447 691 ft 12 kts
2026-05-04 09:34 60.19712 11.10302 691 ft 11 kts 286°
2026-05-04 09:34 60.19719 11.10249 691 ft 0 kts 284°